Find Starlink 34133

NORAD ID: 64143 Int'l Des: 2025-111 Owner: SPXS Country: US Constellation: starlink operational
LEOCIRCULAR

当前视图

正在加载3D地球...

About Starlink 34133

Starlink 34133 (NORAD 64143) is a starlink constellation satellite (v2 mini) launched May 24, 2025 by SPXS of US. It operates in LEO, CIRCULAR orbit with a mass of 575.00 kg.

即将过境

Passes for default location (London). Set your location on the main map for personalized predictions.

高度历史

Loading altitude history...

两行轨道根数

1 64143U 25111W 26237.95581871 .00019698 00000-0 72289-3 0 9996
2 64143 43.0018 201.6689 0001082 255.4684 104.6048 15.27603877 71358
Epoch: Aug 25, 2026 • Age: 15 hours

当前状态

高度 491.5 km
远地点 / 近地点 N/A
速度 7.62 km/s
星下点 -32.83°S, 36.36°W
发射日期 May 24, 2025
运行时间 1.2 years
类型 internet

技术详情

分类 Payload
质量 575.00 kg
干质量 530.00 kg
总质量 575.00 kg
长度 0.30 m
直径 4.10 m
跨度 29.00 m
形状 Box + pan
制造商 SPXS
平台类型 Starlink V2MO
阶段状态 In Orbit
所有者/国家 SPXS/US

Most Searched